MDT,Max TemperatureF,Mean TemperatureF,Min TemperatureF,Max Dew PointF,MeanDew PointF,Min DewpointF,Max Humidity, Mean Humidity, Min Humidity, Max Sea Level PressureIn, Mean Sea Level PressureIn, Min Sea Level PressureIn, Max VisibilityMiles, Mean VisibilityMiles, Min VisibilityMiles, Max Wind SpeedMPH, Mean Wind SpeedMPH, Max Gust SpeedMPH,PrecipitationIn, CloudCover, Events, WindDirDegrees
2013-4-1,63,46,28,25,22,20,75,48,20,30.19,30.10,30.02,10,10,10,12,4,20,0.00,0,,278
2013-4-2,69,50,30,30,26,22,69,46,22,30.16,30.04,29.93,10,10,10,18,6,24,0.00,0,,265
2013-4-3,62,51,40,32,30,27,53,41,29,30.10,30.06,29.99,10,10,10,20,6,29,0.00,3,,280
2013-4-4,65,51,37,40,32,28,76,51,26,30.09,29.96,29.78,10,10,10,21,4,26,T,3,,256
2013-4-5,61,52,42,39,31,24,76,51,25,29.92,29.81,29.74,10,10,10,29,13,39,0.00,4,,271
2013-4-6,56,47,38,37,31,27,64,53,41,29.92,29.87,29.81,10,10,8,28,8,37,0.01,5,Rain,274
2013-4-7,50,40,29,37,31,23,89,72,54,29.91,29.74,29.58,10,7,1,28,7,33,0.38,7,Rain-Snow,295
2013-4-8,29,25,20,23,16,11,75,63,50,30.46,30.13,29.82,10,10,10,24,14,30,T,7,Snow,332
2013-4-9,41,29,16,21,13,10,75,53,30,30.56,30.45,30.33,10,10,10,10,5,17,0.00,1,,272
2013-4-10,57,43,28,38,26,19,69,53,36,30.33,30.05,29.82,10,10,10,30,6,37,T,5,,278
2013-4-11,54,45,35,31,23,17,62,44,26,30.06,29.95,29.85,10,10,10,24,14,33,0.00,4,,283
2013-4-12,53,40,27,28,23,18,75,51,26,30.15,29.95,29.63,10,10,9,16,5,21,T,5,Snow,359
2013-4-13,50,41,31,34,21,7,76,48,19,29.77,29.57,29.45,10,10,10,43,14,52,0.01,5,,271
2013-4-14,34,28,22,27,21,15,100,77,54,30.13,29.88,29.73,10,5,1,22,9,26,0.14,8,Snow,315
2013-4-15,34,27,20,16,14,10,77,58,39,30.30,30.15,29.93,10,10,10,22,11,29,0.00,7,,332
2013-4-16,35,27,19,18,14,9,77,57,36,30.45,30.33,30.14,10,10,9,22,12,28,T,6,,336
2013-4-17,41,31,20,18,14,8,77,54,30,30.47,30.39,30.27,10,10,4,15,6,22,T,5,Snow,309
2013-4-18,53,35,17,20,17,11,77,52,27,30.37,30.29,30.22,10,10,10,24,9,31,0.00,3,,274
2013-4-19,53,45,37,34,28,20,76,59,41,30.19,29.99,29.85,10,10,8,25,11,31,T,5,Rain,265
2013-4-20,58,47,36,32,27,22,62,45,28,30.05,29.95,29.88,10,10,10,36,14,45,T,4,,279
2013-4-21,36,29,22,28,22,16,92,78,64,30.43,30.18,30.01,10,4,0,22,10,28,0.23,8,Fog-Snow,316
2013-4-22,40,31,21,20,14,-1,81,51,20,30.56,30.44,30.26,10,8,2,15,6,22,T,5,Snow,307
2013-4-23,50,35,19,23,17,12,77,51,25,30.46,30.34,30.25,10,10,10,22,4,26,0.00,3,,305
2013-4-24,60,43,25,25,20,15,75,47,19,30.37,30.18,29.97,10,10,10,24,10,31,0.00,0,,261
2013-4-25,65,54,43,25,20,16,37,27,17,30.04,29.92,29.84,10,10,10,28,14,35,0.00,1,,271
2013-4-26,71,54,37,30,26,22,64,41,17,30.18,30.11,30.04,10,10,10,26,10,33,0.00,0,,275
2013-4-27,72,56,39,31,25,18,60,38,15,30.14,30.01,29.90,10,10,10,32,15,46,0.00,0,,268
2013-4-28,64,55,46,35,29,21,60,42,23,30.03,29.93,29.84,10,10,10,28,10,36,T,2,Rain,270
2013-4-29,58,47,35,36,22,11,65,40,15,29.87,29.71,29.57,10,10,10,43,16,58,0.01,2,,276
2013-4-30,42,35,27,23,19,12,69,53,37,30.38,30.11,29.87,10,10,9,22,9,31,T,5,Snow,314